Overview Statistics Trail Chart Weather Telemetry Raw packets
 

This is the latest recevied weather packets stored in our database for station/object N8WJW. If no packets are shown the sender has not sent any weather packets the latest 10 day(s).

<< 1 2 3 4 5 6 7 >>
Time Temp. Humidity Pressure Rain* Wind** Luminosity Snow
1788553637 23.89° C 92% 1015.6 hPa 0 mm - 119 W/m² -
1788553333 24.44° C 91% 1015.7 hPa 0 mm - 184 W/m² -
1788553028 24.44° C 91% 1015.8 hPa 0 mm - 247 W/m² -
1788552728 24.44° C 91% 1015.8 hPa 0 mm - 210 W/m² -
1788552423 23.89° C 92% 1016.1 hPa 0 mm - 321 W/m² -
1788552117 23.89° C 93% 1016.1 hPa 0 mm - 276 W/m² -
1788551816 23.89° C 95% 1016.3 hPa 0 mm - 457 W/m² -
1788551510 23.33° C 96% 1016.4 hPa 0 mm - 202 W/m² -
1788551210 23.33° C 96% 1016.3 hPa 0 mm - 159 W/m² -
1788550904 23.33° C 97% 1016.3 hPa 0 mm - 189 W/m² -
1788550599 22.78° C 97% 1016.3 hPa 0 mm - 172 W/m² -
1788550296 22.78° C 97% 1016.7 hPa 0 mm - 166 W/m² -
1788549996 22.78° C 98% 1016.8 hPa 0 mm - 176 W/m² -
1788549691 22.78° C 98% 1017.1 hPa 0 mm - 170 W/m² -
1788549388 22.78° C 99% 1017 hPa 0 mm - 170 W/m² -
1788549084 22.78° C 99% 1017.1 hPa 0 mm - 189 W/m² -
1788548779 22.22° C 99% 1017 hPa 0 mm - 224 W/m² -
1788548475 22.22° C 99% 1017.4 hPa 0 mm - 211 W/m² -
1788548172 22.22° C 99% 1017.3 hPa 0 mm - 173 W/m² -
1788547867 22.22° C 99% 1017.4 hPa 0 mm - 150 W/m² -
1788547565 21.67° C 99% 1017.3 hPa 0 mm - 154 W/m² -
1788547261 21.67° C 99% 1017 hPa 0 mm - 143 W/m² -
1788546956 21.67° C 99% 1017 hPa 0 mm - 151 W/m² -
1788546651 21.67° C 99% 1017.2 hPa 0.51 mm - 92 W/m² -
1788546347 21.67° C 99% 1017 hPa 0 mm - 89 W/m² -

* Rain latest hour (hover to see other rain measurements)
** Current wind speed in m/s (hover to see current wind gust speed)